Waarnemingen

Advertentie
Mijn weer
Dunkerque, Frankrijk (7010): temperatuur & dauwpunt: 23.03.2017 01:00:00 - 29.03.2017 01:00:00 (CEST)Dunkerque, Frankrijk (7010): windsnelheid & windstoten: 23.03.2017 01:00:00 - 29.03.2017 01:00:00 (CEST)Dunkerque, Frankrijk (7010): windrichting: 23.03.2017 01:00:00 - 29.03.2017 01:00:00 (CEST)Dunkerque, Frankrijk (7010): luchtdruk: 23.03.2017 01:00:00 - 29.03.2017 01:00:00 (CEST)Dunkerque, Frankrijk (7010): zicht: 23.03.2017 01:00:00 - 29.03.2017 01:00:00 (CEST)Dunkerque, Frankrijk (7010): neerslag: 23.03.2017 01:00:00 - 29.03.2017 01:00:00 (CEST)
Datum & Tijd tt [°C] td [°C] ff [km/u] ff [kn] fx [km/u] fx [kn] dd ppp [hPa] vv [km] rr [mm]
29.03.2017 01:00:00 10,6 8,0 13 7 21 11 ZZW 1023,7 - 0,0
29.03.2017 00:00:00 10,8 8,2 11 6 19 10 ZZW 1023,7 - 0,0
28.03.2017 23:00:00 11,1 8,3 13 7 25 13 Z 1023,5 16 0,0
28.03.2017 22:00:00 12,1 8,9 16 9 33 18 ZW 1023,2 - 0,0
28.03.2017 21:00:00 12,7 9,1 15 8 36 19 ZW 1022,8 - 0,0
28.03.2017 20:00:00 12,6 9,1 21 11 47 25 ZW 1022,4 14 0,0
28.03.2017 19:00:00 13,3 8,8 23 12 44 24 ZW 1022,0 - 0,0
28.03.2017 18:00:00 13,4 8,7 24 13 47 26 ZW 1021,8 - 0,0
28.03.2017 17:00:00 14,0 9,2 29 16 48 26 WZW 1021,7 - 0,0
28.03.2017 16:00:00 16,9 7,5 27 15 48 26 ZW 1021,4 - 0,0
28.03.2017 15:00:00 17,1 7,7 23 12 39 21 ZW 1021,2 - 0,0
28.03.2017 14:00:00 14,4 9,0 18 10 33 18 WNW 1021,3 14 0,0
28.03.2017 13:00:00 12,7 7,8 17 9 27 15 WNW 1021,4 - 0,0
28.03.2017 12:00:00 16,1 7,6 18 10 29 16 ZZW 1021,2 - 0,0
28.03.2017 11:00:00 14,2 6,8 9 5 16 9 ZW 1020,7 10 0,0
28.03.2017 10:00:00 10,7 5,0 8 4 13 7 Z 1020,5 - 0,0
28.03.2017 09:00:00 8,5 4,3 10 5 15 8 Z 1020,1 - 0,0
28.03.2017 08:00:00 7,0 3,8 11 6 15 8 Z 1019,9 6 0,0
28.03.2017 07:00:00 7,8 3,8 11 6 15 8 Z 1019,8 - 0,0
28.03.2017 06:00:00 8,0 4,4 11 6 15 8 Z 1019,7 - 0,0
28.03.2017 05:00:00 7,6 5,4 8 4 11 6 Z 1019,8 - 0,0
28.03.2017 04:00:00 7,9 5,7 8 4 11 6 Z 1020,0 - 0,0
28.03.2017 03:00:00 8,3 5,6 5 3 7 4 Z 1020,3 - 0,2
28.03.2017 02:00:00 8,4 6,4 5 3 6 3 ZZO 1020,3 - 0,0
28.03.2017 01:00:00 8,7 7,1 5 3 7 4 ZO 1020,4 - 0,0
28.03.2017 00:00:00 9,1 7,7 3 1 6 3 ZO 1020,6 - 0,0
27.03.2017 23:00:00 9,2 7,8 4 2 9 5 ONO 1020,8 16 0,0
27.03.2017 22:00:00 9,2 7,6 6 3 8 5 ONO 1020,7 - 0,0
27.03.2017 21:00:00 9,5 7,6 6 3 13 7 N 1020,4 - 0,0
27.03.2017 20:00:00 10,0 7,4 7 4 15 8 NO 1020,1 10 0,0
27.03.2017 19:00:00 10,9 7,6 10 5 16 9 NNO 1019,9 - 0,0
27.03.2017 18:00:00 11,5 7,8 12 6 17 9 NO 1020,0 - 0,0
27.03.2017 17:00:00 12,0 7,7 13 7 18 10 NNO 1020,3 10 0,0
27.03.2017 16:00:00 12,2 7,9 13 7 19 11 NO 1020,7 - 0,0
27.03.2017 15:00:00 11,9 7,2 17 9 21 11 NO 1021,3 - 0,0
27.03.2017 14:00:00 11,6 7,1 13 7 18 10 NNO 1021,9 10 0,0
27.03.2017 13:00:00 11,5 6,8 10 5 13 7 NNO 1022,3 - 0,0
27.03.2017 12:00:00 11,0 5,9 8 5 10 6 NO 1022,6 - 0,0
27.03.2017 11:00:00 10,6 5,4 4 2 9 5 NO 1022,4 12 0,0
27.03.2017 10:00:00 8,9 4,9 5 3 12 6 O 1022,6 - 0,0
27.03.2017 09:00:00 7,1 4,7 11 6 16 9 O 1022,4 - 0,0
27.03.2017 08:00:00 6,6 4,8 11 6 16 9 O 1022,2 13 0,0
27.03.2017 07:00:00 7,3 5,4 11 6 21 11 O 1022,1 - 0,0
27.03.2017 06:00:00 7,6 5,9 12 6 25 14 O 1022,1 - 0,0
27.03.2017 05:00:00 8,3 7,1 16 9 23 12 O 1022,2 - 0,0
27.03.2017 04:00:00 8,4 7,2 17 9 21 11 ONO 1022,7 - 0,0
27.03.2017 03:00:00 8,7 7,3 16 9 20 11 ONO 1022,9 - 0,0
27.03.2017 02:00:00 8,6 6,2 15 8 18 10 ONO 1023,2 18 0,0
27.03.2017 01:00:00 8,5 6,5 13 7 16 8 ONO 1023,4 - 0,0
27.03.2017 00:00:00 8,7 7,3 11 6 19 10 ONO 1023,8 - 0,0
26.03.2017 23:00:00 9,1 7,7 17 9 27 14 ONO 1023,6 15 0,0
26.03.2017 22:00:00 9,1 7,5 22 12 34 19 ONO 1023,5 - 0,0
26.03.2017 21:00:00 9,1 7,4 22 12 38 20 ONO 1023,2 - 0,0
26.03.2017 20:00:00 9,5 7,3 29 15 41 22 ONO 1022,8 15 0,0
26.03.2017 19:00:00 10,1 6,8 29 16 43 23 NO 1022,6 - 0,0
26.03.2017 18:00:00 10,5 7,2 32 17 41 22 NO 1022,6 - 0,0
26.03.2017 17:00:00 11,3 7,2 28 15 38 21 NO 1022,9 15 0,0
26.03.2017 16:00:00 11,0 6,9 28 15 39 21 NO 1023,2 - 0,0
26.03.2017 15:00:00 11,1 7,2 26 14 36 20 NO 1023,4 - 0,0
26.03.2017 14:00:00 10,9 6,8 27 15 38 21 NO 1023,7 15 0,0
26.03.2017 13:00:00 10,7 6,6 25 13 38 21 NO 1023,8 - 0,0
26.03.2017 12:00:00 10,2 6,3 30 16 40 22 ONO 1024,0 - 0,0
26.03.2017 11:00:00 9,7 5,5 29 16 39 21 ONO 1023,9 15 0,0
26.03.2017 10:00:00 9,2 5,4 30 16 38 20 ONO 1023,9 - 0,0
26.03.2017 09:00:00 7,9 4,1 27 14 42 23 O 1023,4 - 0,0
26.03.2017 08:00:00 7,2 4,3 29 16 44 24 O 1023,6 - 0,0
26.03.2017 07:00:00 7,4 4,0 33 18 50 27 ONO 1023,5 - 0,0
26.03.2017 06:00:00 7,9 4,5 34 18 44 24 ONO 1023,4 - 0,0
26.03.2017 05:00:00 7,8 3,3 30 16 44 24 ONO 1023,3 - 0,0
26.03.2017 04:00:00 8,4 3,0 31 17 48 26 ONO 1023,6 - 0,0
26.03.2017 03:00:00 8,9 2,9 36 20 52 28 ONO 1024,0 - 0,0
26.03.2017 02:00:00 9,0 4,2 37 20 53 28 ONO 1024,2 15 0,0
26.03.2017 01:00:00 9,0 5,2 38 21 48 26 ONO 1024,1 - 0,0
26.03.2017 00:00:00 9,0 5,2 37 20 49 27 ONO 1024,2 - 0,0
25.03.2017 23:00:00 9,3 5,3 39 21 51 28 ONO 1024,6 15 0,0
25.03.2017 22:00:00 9,2 5,2 38 21 54 29 NO 1024,5 - 0,0
25.03.2017 21:00:00 9,4 4,6 38 20 54 29 NO 1024,4 - 0,0
25.03.2017 20:00:00 9,6 4,2 39 21 56 30 NO 1024,1 15 0,0
25.03.2017 19:00:00 10,0 3,5 43 23 61 33 NO 1024,0 - 0,0
25.03.2017 18:00:00 10,5 4,0 43 23 58 31 NO 1024,5 - 0,0
25.03.2017 17:00:00 10,7 4,6 43 23 61 33 NO 1025,2 15 0,0
25.03.2017 16:00:00 10,9 4,8 43 23 61 33 NO 1026,0 - 0,0
25.03.2017 15:00:00 10,7 4,8 45 24 58 31 NO 1026,7 - 0,0
25.03.2017 14:00:00 11,2 5,1 40 21 51 28 NO 1027,7 15 0,0
25.03.2017 13:00:00 10,6 5,1 38 20 52 28 NO 1028,6 - 0,0
25.03.2017 12:00:00 10,0 5,0 37 20 49 27 NO 1028,9 - 0,0
25.03.2017 11:00:00 9,7 4,7 33 18 41 22 ONO 1029,4 - 0,0
25.03.2017 10:00:00 9,0 4,2 27 14 37 20 ONO 1029,9 - 0,0
25.03.2017 09:00:00 8,3 3,9 25 14 43 23 ONO 1029,9 - 0,0
25.03.2017 08:00:00 7,6 3,6 28 15 40 22 ONO 1029,9 15 0,0
25.03.2017 07:00:00 8,0 4,0 31 17 44 24 ONO 1029,7 - 0,0
25.03.2017 06:00:00 8,4 4,6 33 18 45 25 ONO 1029,9 - 0,0
25.03.2017 05:00:00 8,5 3,9 31 17 43 23 ONO 1030,0 18 0,0
25.03.2017 04:00:00 8,7 5,3 28 15 41 22 ONO 1030,2 - 0,0
25.03.2017 03:00:00 9,0 5,7 27 15 36 19 ONO 1030,4 - 0,0
25.03.2017 02:00:00 9,2 6,1 29 16 39 21 ONO 1030,6 18 0,0
25.03.2017 01:00:00 9,4 6,1 30 16 39 21 ONO 1030,6 - 0,0
25.03.2017 00:00:00 9,6 6,5 29 16 39 21 NO 1030,6 - 0,0
24.03.2017 23:00:00 9,4 6,8 31 17 40 21 NO 1030,3 14 0,0
24.03.2017 22:00:00 9,3 7,1 26 14 35 19 NO 1029,6 - 0,0
24.03.2017 21:00:00 9,2 6,8 26 14 39 21 NO 1029,3 - 0,0
24.03.2017 20:00:00 9,4 6,3 31 17 56 30 NO 1028,5 14 0,0
24.03.2017 19:00:00 9,4 6,3 44 24 55 30 NNO 1028,3 - 0,0
24.03.2017 18:00:00 10,0 6,9 35 19 47 25 NNO 1028,1 - 0,0
24.03.2017 17:00:00 10,3 6,6 38 21 51 28 NNO 1027,8 10 0,0
24.03.2017 16:00:00 10,9 6,6 33 18 49 26 NO 1028,0 - 0,0
24.03.2017 15:00:00 11,1 6,6 34 18 43 23 NO 1027,9 - 0,0
24.03.2017 14:00:00 11,5 7,0 28 15 35 19 NO 1027,8 6 0,0
24.03.2017 13:00:00 10,9 7,0 26 14 33 18 NO 1027,5 - 0,0
24.03.2017 12:00:00 10,3 6,6 22 12 31 17 ONO 1027,8 - 0,0
24.03.2017 11:00:00 8,5 5,9 24 13 36 19 ONO 1027,0 - 0,0
24.03.2017 10:00:00 7,5 5,5 26 14 35 19 ONO 1026,0 - 0,0
24.03.2017 09:00:00 6,8 4,8 18 10 35 19 O 1025,6 - 0,0
24.03.2017 08:00:00 7,0 5,1 26 14 39 21 ONO 1024,0 6 0,0
24.03.2017 07:00:00 6,8 4,8 26 14 35 19 O 1022,9 - 0,0
24.03.2017 06:00:00 7,4 5,2 31 17 46 25 O 1022,4 - 0,0
24.03.2017 05:00:00 7,7 5,0 31 17 57 31 ONO 1021,9 18 0,0
24.03.2017 04:00:00 8,3 5,6 39 21 51 27 ONO 1021,4 - 0,0
24.03.2017 03:00:00 8,6 5,5 35 19 46 25 ONO 1021,8 - 0,0
24.03.2017 02:00:00 9,1 5,5 31 17 43 23 ONO 1021,3 18 0,0
24.03.2017 01:00:00 9,6 5,6 32 17 44 24 ONO 1020,7 - 0,0
24.03.2017 00:00:00 10,1 5,9 35 19 45 25 ONO 1019,5 - 0,0
23.03.2017 23:00:00 10,0 6,9 32 18 43 23 ONO 1018,5 - 0,0
23.03.2017 22:00:00 10,1 7,2 34 18 45 25 ONO 1017,6 - 0,0
23.03.2017 21:00:00 9,8 7,0 32 17 51 28 NO 1016,7 - 0,0
23.03.2017 20:00:00 9,8 7,0 34 19 46 25 NO 1016,0 12 0,0
23.03.2017 19:00:00 10,1 6,8 32 18 53 29 NO 1015,4 - 0,0
23.03.2017 18:00:00 10,5 7,0 40 22 56 30 NO 1014,5 - 0,0
23.03.2017 17:00:00 11,3 6,8 35 19 51 28 NO 1014,5 - 0,0
23.03.2017 16:00:00 11,6 6,7 36 19 48 26 NO 1014,1 - 0,0
23.03.2017 15:00:00 10,8 6,0 35 19 47 25 NO 1014,2 - 0,0
23.03.2017 14:00:00 10,9 6,0 35 19 49 26 NO 1014,3 - 0,0
23.03.2017 13:00:00 10,6 6,2 - - - - - 1014,1 - 0,0
23.03.2017 12:00:00 9,5 5,3 29 16 36 19 NO 1014,4 - 0,0
23.03.2017 11:00:00 9,1 4,3 25 14 32 17 ONO 1014,3 - 0,0
23.03.2017 10:00:00 7,7 4,1 19 10 28 15 O 1014,1 - 0,0
23.03.2017 09:00:00 6,2 3,4 20 11 35 19 O 1013,5 - 0,0
23.03.2017 08:00:00 6,0 3,2 16 8 30 16 O 1013,0 15 0,0
23.03.2017 07:00:00 5,5 2,7 18 10 26 14 O 1012,5 - 0,0
23.03.2017 06:00:00 5,6 2,6 18 10 26 14 O 1012,0 - 0,0
23.03.2017 05:00:00 5,9 2,7 17 9 27 15 OZO 1011,7 - 0,0
23.03.2017 04:00:00 6,5 2,8 20 11 29 16 OZO 1011,9 - 0,0
23.03.2017 03:00:00 7,0 3,1 20 11 32 17 OZO 1011,9 - 0,0
23.03.2017 02:00:00 7,4 2,7 22 12 30 16 OZO 1011,4 18 0,0
23.03.2017 01:00:00 - - - - - - - - - -

tt = temperatuur
td = dauwpunt
ff = windsnelheid
fx = windstoten
dd = windrichting
ppp = luchtdruk
vv = zicht
rr = neerslag

Weerstations in de omgeving